This demonstration page uses our WeatherBlox Daily Observations layout. Learn more.

Left ArrowRight Arrow

Hourly Observations for February 26, 2016

Temp ( °F °C ) Dew Point ( °F °C ) Humidity (%) Winds ( mph kmh ) Pressure ( in mb ) Visibility ( mi km ) Precip ( " mm )
12:15 am 00:15 Cloudy 30 -1 23 -5 75 75 NW 7 11 30.21 1023 10 16 N/A
12:34 am 00:34 Cloudy 30 -1 23 -5 75 75 NNW 9 15 30.21 1023 10 16 N/A
12:54 am 00:54 Cloudy 30 -1 23 -5 75 75 NW 7 11 30.21 1023 10 16 N/A
1:15 am 01:15 Cloudy 30 -1 23 -5 75 75 NW 5 7 30.21 1023 10 16 N/A
1:34 am 01:34 Cloudy 30 -1 23 -5 75 75 NW 7 11 30.21 1023 10 16 N/A
1:54 am 01:54 Cloudy 30 -1 23 -5 75 75 NW 8 13 30.21 1023 10 16 N/A
2:15 am 02:15 Cloudy 30 -1 23 -5 75 75 NW 9 15 30.21 1023 10 16 N/A
2:34 am 02:34 Cloudy 30 -1 23 -5 75 75 NW 8 13 30.24 1024 10 16 N/A
2:54 am 02:54 Cloudy 30 -1 23 -5 75 75 NW 7 11 30.21 1023 10 16 N/A
3:15 am 03:15 Cloudy 30 -1 23 -5 75 75 NW 6 9 30.24 1024 10 16 N/A
3:34 am 03:34 Cloudy 30 -1 23 -5 75 75 W 7 11 30.24 1024 10 16 N/A
3:54 am 03:54 Cloudy 30 -1 23 -5 75 75 WNW 7 11 30.24 1024 10 16 N/A
4:15 am 04:15 Cloudy 30 -1 25 -4 80 80 W 8 13 30.24 1024 10 16 N/A
4:34 am 04:34 Cloudy 30 -1 25 -4 80 80 W 8 13 30.24 1024 10 16 N/A
4:54 am 04:54 Cloudy 30 -1 23 -5 75 75 WNW 9 15 30.24 1024 10 16 N/A
5:15 am 05:15 Cloudy 30 -1 21 -6 69 69 NW 8 13 30.24 1024 10 16 N/A
5:34 am 05:34 Cloudy 30 -1 21 -6 69 69 NW 12 19 30.24 1024 10 16 N/A
5:55 am 05:55 Cloudy 30 -1 21 -6 69 69 NW 9 15 30.24 1024 10 16 N/A
6:14 am 06:14 Cloudy 30 -1 19 -7 64 64 NW 8 13 30.24 1024 10 16 N/A
6:34 am 06:34 Cloudy 30 -1 21 -6 69 69 NW 8 13 30.24 1024 10 16 N/A
6:54 am 06:54 Cloudy 30 -1 21 -6 69 69 NW 9 15 30.24 1024 10 16 N/A
7:14 am 07:14 Cloudy 28 -2 21 -6 74 74 NW 8 13 30.24 1024 10 16 N/A
7:35 am 07:35 Cloudy 28 -2 21 -6 74 74 NW 7 11 30.27 1025 10 16 N/A
7:54 am 07:54 Cloudy 30 -1 21 -6 69 69 NW 9 15 30.27 1025 10 16 N/A
8:14 am 08:14 Cloudy 30 -1 21 -6 69 69 NW 7 11 30.27 1025 10 16 N/A
8:35 am 08:35 Cloudy 30 -1 21 -6 69 69 NW 8 13 30.27 1025 10 16 N/A
8:54 am 08:54 Cloudy 30 -1 21 -6 69 69 NW 7 11 30.30 1026 10 16 N/A
9:14 am 09:14 Cloudy 30 -1 21 -6 69 69 NW 10 17 30.30 1026 10 16 N/A
9:35 am 09:35 Mostly Cloudy 32 undefined 21 -6 64 64 NW 6 9 30.30 1026 10 16 N/A
9:54 am 09:54 Mostly Cloudy 32 undefined 21 -6 64 64 NW 5 7 30.30 1026 10 16 N/A
10:14 am 10:14 Partly Cloudy 32 undefined 21 -6 64 64 NNW 6 9 30.30 1026 10 16 N/A
10:35 am 10:35 Partly Cloudy 32 undefined 23 -5 69 69 NNW 7 11 30.30 1026 10 16 N/A
10:54 am 10:54 Partly Cloudy 32 undefined 21 -6 64 64 WNW 8 13 30.30 1026 10 16 N/A
11:14 am 11:14 Mostly Cloudy 34 1 21 -6 60 60 W 6 9 30.30 1026 10 16 N/A
11:35 am 11:35 Cloudy 34 1 19 -7 56 56 WNW 7 11 30.33 1027 10 16 N/A
11:54 am 11:54 Mostly Cloudy 34 1 19 -7 56 56 NW 3 6 30.33 1027 10 16 N/A
12:14 pm 12:14 Cloudy 36 2 19 -7 52 52 WNW 7 11 30.30 1026 10 16 N/A
12:35 pm 12:35 Cloudy 36 2 21 -6 56 56 WNW 7 11 30.30 1026 10 16 N/A
12:54 pm 12:54 Cloudy 34 1 19 -7 56 56 WNW 9 15 30.30 1026 10 16 N/A
1:14 pm 13:14 Cloudy 34 1 19 -7 56 56 N 5 7 30.30 1026 10 16 N/A
1:35 pm 13:35 Mostly Cloudy 34 1 19 -7 56 56 NW 6 9 30.27 1025 10 16 N/A
1:54 pm 13:54 Mostly Cloudy 36 2 19 -7 52 52 W 8 13 30.27 1025 10 16 N/A
2:14 pm 14:14 Mostly Cloudy 36 2 19 -7 52 52 WNW 10 17 30.27 1025 10 16 N/A
2:35 pm 14:35 Mostly Cloudy 37 3 21 -6 52 52 WNW 12 19 30.24 1024 10 16 N/A
2:54 pm 14:54 Mostly Cloudy 37 3 21 -6 52 52 W 14 22 30.24 1024 10 16 N/A
3:14 pm 15:14 Mostly Cloudy 36 2 19 -7 52 52 W 10 17 30.24 1024 10 16 N/A
3:35 pm 15:35 Mostly Cloudy 36 2 21 -6 56 56 W 12 19 30.24 1024 10 16 N/A
3:54 pm 15:54 Cloudy 36 2 21 -6 56 56 WNW 10 17 30.24 1024 10 16 N/A
4:14 pm 16:14 Cloudy 36 2 21 -6 56 56 W 12 19 30.24 1024 10 16 N/A
4:35 pm 16:35 Cloudy 36 2 21 -6 56 56 W 12 19 30.24 1024 10 16 N/A
4:54 pm 16:54 Cloudy 34 1 21 -6 60 60 WNW 12 19 30.24 1024 10 16 N/A
5:14 pm 17:14 Cloudy 34 1 23 -5 65 65 WNW 13 20 30.24 1024 10 16 N/A
5:35 pm 17:35 Cloudy 34 1 23 -5 65 65 WNW 10 17 30.24 1024 10 16 N/A
5:54 pm 17:54 Cloudy 34 1 21 -6 60 60 WNW 10 17 30.24 1024 10 16 N/A
6:14 pm 18:14 Cloudy 32 undefined 23 -5 69 69 NW 8 13 30.24 1024 10 16 N/A
6:35 pm 18:35 Cloudy 32 undefined 23 -5 69 69 NW 8 13 30.24 1024 10 16 N/A
6:54 pm 18:54 Cloudy 32 undefined 23 -5 69 69 NW 8 13 30.24 1024 10 16 N/A
7:14 pm 19:14 Cloudy 32 undefined 23 -5 69 69 NW 7 11 30.24 1024 10 16 N/A
7:35 pm 19:35 Cloudy 30 -1 23 -5 75 75 NNW 6 9 30.24 1024 10 16 N/A
7:54 pm 19:54 Cloudy 30 -1 23 -5 75 75 NW 5 7 30.24 1024 10 16 N/A
8:14 pm 20:14 Cloudy 30 -1 23 -5 75 75 NNW 5 7 30.24 1024 10 16 N/A
8:35 pm 20:35 Cloudy 30 -1 23 -5 75 75 N N/A 30.24 1024 10 16 N/A
8:54 pm 20:54 Cloudy 30 -1 23 -5 75 75 N N/A 30.24 1024 10 16 N/A
9:14 pm 21:14 Cloudy 30 -1 23 -5 75 75 N N/A 30.24 1024 10 16 N/A
9:35 pm 21:35 Cloudy 30 -1 23 -5 75 75 W 5 7 30.24 1024 10 16 N/A
9:54 pm 21:54 Cloudy 32 undefined 23 -5 69 69 W 9 15 30.24 1024 10 16 N/A
10:14 pm 22:14 Cloudy 32 undefined 23 -5 69 69 W 7 11 30.24 1024 10 16 N/A
10:35 pm 22:35 Cloudy 32 undefined 23 -5 69 69 W 10 17 30.24 1024 10 16 N/A
10:54 pm 22:54 Cloudy 32 undefined 23 -5 69 69 W 13 20 30.24 1024 10 16 N/A
11:14 pm 23:14 Cloudy 32 undefined 23 -5 69 69 W 10 17 30.24 1024 10 16 N/A
11:35 pm 23:35 Cloudy 32 undefined 23 -5 69 69 W 12 19 30.24 1024 10 16 N/A
11:54 pm 23:54 Cloudy 32 undefined 23 -5 69 69 W 9 15 30.24 1024 10 16 N/A

Powered by AerisWeather